Terminal Aerodrome Forecast
Issued by NWS

Home | Current Version | Previous Version | Text Only | Print | Product List | Glossary On
Versions: 1 2 3 4 5 6 7 8 9 10 11 12 13 14 15 16 17 18 19 20
000
FTUS42 KGSP 271138
TAFGMU
TAF
KGMU 271138Z 2712/2812 25010KT P6SM FEW250
     FM271700 30012KT P6SM FEW250
     FM280100 33008KT P6SM SKC
     FM280500 35004KT P6SM SKC=

USA.gov is the U.S. government's official web portal to all federal, state and local government web resources and services.